TimeMDT,TemperatureF,Dew PointF,Humidity,Sea Level PressureIn,VisibilityMPH,Wind Direction,Wind SpeedMPH,Gust SpeedMPH,PrecipitationIn,Events,Conditions,WindDirDegrees,DateUTC
12:53 AM,48.9,21.0,33,29.58,10.0,SW,8.1,-,N/A,,Mostly Cloudy,230,2013-04-13 06:53:00
1:53 AM,48.9,24.1,38,29.55,10.0,SSW,12.7,-,N/A,,Overcast,200,2013-04-13 07:53:00
2:53 AM,48.0,25.0,41,29.52,10.0,SSW,9.2,-,N/A,,Overcast,200,2013-04-13 08:53:00
3:53 AM,45.0,30.0,56,29.51,10.0,South,9.2,-,N/A,,Overcast,190,2013-04-13 09:53:00
4:53 AM,45.0,30.9,58,29.48,10.0,WSW,4.6,-,N/A,,Overcast,250,2013-04-13 10:53:00
5:53 AM,42.1,34.0,73,29.46,10.0,WNW,3.5,-,N/A,,Overcast,290,2013-04-13 11:53:00
6:53 AM,41.0,34.0,76,29.46,10.0,West,5.8,-,N/A,,Overcast,280,2013-04-13 12:53:00
7:53 AM,39.0,32.0,76,29.51,10.0,WNW,12.7,-,0.01,,Overcast,290,2013-04-13 13:53:00
8:53 AM,42.1,28.9,60,29.50,10.0,West,5.8,-,N/A,,Mostly Cloudy,260,2013-04-13 14:53:00
9:53 AM,43.0,27.0,53,29.49,10.0,West,9.2,-,N/A,,Scattered Clouds,260,2013-04-13 15:53:00
10:53 AM,46.9,21.0,36,29.46,10.0,West,19.6,28.8,N/A,,Partly Cloudy,280,2013-04-13 16:53:00
11:53 AM,46.9,19.0,33,29.45,10.0,West,21.9,31.1,N/A,,Clear,270,2013-04-13 17:53:00
12:53 PM,42.1,21.9,45,29.50,10.0,West,25.3,32.2,N/A,,Overcast,280,2013-04-13 18:53:00
1:53 PM,44.1,19.0,37,29.51,10.0,West,23.0,34.5,N/A,,Scattered Clouds,270,2013-04-13 19:53:00
2:53 PM,46.0,7.0,20,29.51,10.0,WNW,31.1,40.3,N/A,,Partly Cloudy,290,2013-04-13 20:53:00
3:53 PM,45.0,9.0,23,29.54,10.0,WNW,23.0,41.4,N/A,,Scattered Clouds,300,2013-04-13 21:53:00
4:53 PM,39.9,12.0,32,29.59,10.0,WNW,26.5,40.3,N/A,,Mostly Cloudy,300,2013-04-13 22:53:00
5:53 PM,37.0,12.0,36,29.66,10.0,WNW,19.6,31.1,0.00,,Partly Cloudy,290,2013-04-13 23:53:00
6:53 PM,39.0,12.9,34,29.68,10.0,West,23.0,28.8,N/A,,Clear,270,2013-04-14 00:53:00
7:53 PM,35.1,16.0,46,29.71,10.0,NW,17.3,-,N/A,,Clear,310,2013-04-14 01:53:00
8:53 PM,32.0,16.0,52,29.76,10.0,WNW,9.2,-,N/A,,Partly Cloudy,290,2013-04-14 02:53:00
9:53 PM,33.1,17.1,52,29.77,10.0,West,5.8,-,N/A,,Scattered Clouds,280,2013-04-14 03:53:00
10:53 PM,32.0,19.0,59,29.76,10.0,West,9.2,-,N/A,,Overcast,280,2013-04-14 04:53:00
11:53 PM,32.0,17.1,54,29.76,10.0,WNW,9.2,-,N/A,,Mostly Cloudy,290,2013-04-14 05:53:00